Waukegan, IL

7:05 PM CST on February 10, 2016 (GMT -0600)
Waukegan Regional

Weather History for KUGN - January, 2013

Change the Weather History Date:

Thursday, January 10, 2013

  Actual Average Record
Temperature  
Mean Temperature 31 °F -  
Max Temperature 42 °F 31 °F 51 °F (2012)
Min Temperature 20 °F 16 °F -4 °F (2015)
Degree Days  
Heating Degree Days 34 42  
Month to date heating degree days 385 411  
Since 1 July heating degree days 2764 2960  
Cooling Degree Days 0 0  
Month to date cooling degree days 0 0  
Year to date cooling degree days 0 0  
Moisture  
Dew Point 31 °F    
Average Humidity 83    
Maximum Humidity 100    
Minimum Humidity 65    
Precipitation  
Precipitation 0.43 in 0.04 in 1.02 in (2014)
Month to date precipitation 0.50 0.44  
Year to date precipitation 0.50 0.44  
Sea Level Pressure  
Sea Level Pressure 30.21 in    
Wind  
Wind Speed 8 mph (ESE)    
Max Wind Speed 18 mph    
Max Gust Speed 25 mph    
Visibility 7 miles    
Events Rain    
T = Trace of Precipitation, MM = Missing Value Source: NWS Daily Summary

Daily Weather History Graph

Daily Weather History Graph

Search for Another Location

Airport or City:

Trip Planner

Search our weather history database for the weather conditions in past years. The results will help you decide how hot, cold, wet, or windy it might be!

Date:

Astronomy

Jan. 10, 2013 Rise Set
Actual Time 7:20 AM CST 4:38 PM CST
Civil Twilight 6:48 AM CST 5:10 PM CST
Nautical Twilight 6:13 AM CST 5:44 PM CST
Astronomical Twilight 5:39 AM CST 6:18 PM CST
Moon 5:59 AM CST (1/10) 3:46 PM CST (1/10)
Length of Visible Light 10h 21m
Length of Day
9h 18m
Waning Crescent, 2% of the Moon is Illuminated
Jan 10
Waning Crescent
Jan 11
New
Jan 18
First Quarter
Jan 26
Full
Feb 3
Last Quarter

Hourly Weather History & Observations

Time (CST) Temp. Windchill Dew Point Humidity Pressure Visibility Wind Dir Wind Speed Gust Speed Precip Events Conditions
12:52 AM 27.0 °F 23.0 °F 21.9 °F 81% 30.50 in 10.0 mi WSW 3.5 mph - N/A   Clear
1:52 AM 28.9 °F 25.2 °F 21.9 °F 75% 30.52 in 10.0 mi SW 3.5 mph - N/A   Clear
2:52 AM 23.0 °F - 19.9 °F 88% 30.54 in 10.0 mi Calm Calm - N/A   Clear
3:52 AM 21.0 °F - 19.0 °F 92% 30.51 in 10.0 mi Calm Calm - N/A   Clear
4:52 AM 21.9 °F - 19.0 °F 89% 30.52 in 10.0 mi Calm Calm - N/A   Clear
6:52 AM 21.9 °F - 19.9 °F 92% 30.51 in 10.0 mi Calm Calm - N/A   Clear
8:52 AM 30.9 °F 27.5 °F 28.0 °F 89% 30.49 in 7.0 mi East 3.5 mph - N/A   Clear
9:52 AM 37.9 °F 32.1 °F 33.1 °F 83% 30.46 in 10.0 mi ESE 8.1 mph - N/A   Clear
10:52 AM 39.9 °F 32.9 °F 32.0 °F 73% 30.42 in 10.0 mi ESE 11.5 mph 18.4 mph N/A   Clear
12:52 PM 41.0 °F 33.9 °F 30.9 °F 67% 30.32 in 10.0 mi ESE 12.7 mph - N/A   Clear
2:52 PM 39.9 °F 33.4 °F 32.0 °F 73% 30.26 in 10.0 mi ESE 10.4 mph - N/A   Clear
3:52 PM 39.9 °F 32.9 °F 33.1 °F 77% 30.25 in 10.0 mi ESE 11.5 mph - N/A   Scattered Clouds
4:52 PM 39.0 °F 32.3 °F 34.0 °F 82% 30.21 in 10.0 mi East 10.4 mph - 0.01 in   Overcast
5:52 PM 39.9 °F 32.5 °F 33.1 °F 77% 30.17 in 10.0 mi ESE 12.7 mph 18.4 mph 0.00 in Rain Light Rain
6:29 PM 37.4 °F 29.8 °F 33.8 °F 87% 30.10 in 9.0 mi ESE 11.5 mph 20.7 mph 0.01 in Rain Light Rain
6:52 PM 39.0 °F 31.0 °F 34.0 °F 82% 30.13 in 10.0 mi ESE 13.8 mph - 0.01 in   Overcast
7:52 PM 37.9 °F 30.5 °F 34.0 °F 86% 30.09 in 9.0 mi ESE 11.5 mph 18.4 mph N/A   Overcast
8:42 PM 39.2 °F 31.2 °F 35.6 °F 87% 30.02 in 9.0 mi ESE 13.8 mph 19.6 mph 0.00 in   Overcast
8:52 PM 37.9 °F 28.9 °F 35.1 °F 89% 30.04 in 7.0 mi ESE 16.1 mph - 0.00 in   Overcast
9:20 PM 37.4 °F 28.9 °F 35.6 °F 93% 29.99 in 4.0 mi ESE 13.8 mph - 0.03 in Rain Light Rain
9:52 PM 37.9 °F 29.2 °F 37.0 °F 97% 29.99 in 3.0 mi SE 15.0 mph 21.9 mph 0.06 in Rain Rain
10:01 PM 37.4 °F 28.5 °F 37.4 °F 100% 29.98 in 2.5 mi SE 15.0 mph 19.6 mph 0.04 in Rain Rain
10:16 PM 37.4 °F 28.5 °F 37.4 °F 100% 29.95 in 1.8 mi ESE 15.0 mph 21.9 mph 0.12 in Rain Heavy Rain
10:32 PM 37.4 °F 28.9 °F 37.4 °F 100% 29.94 in 2.0 mi SE 13.8 mph 20.7 mph 0.21 in Rain Rain
10:52 PM 37.9 °F 29.2 °F 37.0 °F 97% 29.96 in 2.0 mi SE 15.0 mph - 0.30 in Rain Rain
11:11 PM 37.4 °F 29.3 °F 37.4 °F 100% 29.92 in 3.0 mi SE 12.7 mph 21.9 mph 0.03 in Rain Light Rain
11:52 PM 37.9 °F 30.5 °F 37.9 °F 100% 29.91 in 1.8 mi SE 11.5 mph - 0.05 in Rain Light Rain